This is the latest recevied weather packets stored in our database for station/object K7SKM. If no packets are shown the sender has not sent any weather packets the latest 10 day(s).
| Time | Temp. | Humidity | Pressure | Rain* | Wind** | Luminosity | Snow |
|---|---|---|---|---|---|---|---|
| 1787430013 | 20° C | 68% | 1022.1 hPa | 0 mm | - | 97 W/m² | - |
| 1787429708 | 20° C | 68% | 1022.5 hPa | 0 mm | - | 85 W/m² | - |
| 1787429403 | 19.44° C | 68% | 1022.5 hPa | 0 mm | - | 83 W/m² | - |
| 1787429099 | 20° C | 68% | 1022.5 hPa | 0 mm | - | 86 W/m² | - |
| 1787428794 | 19.44° C | 69% | 1022.4 hPa | 0 mm | - | 109 W/m² | - |
| 1787428490 | 20° C | 69% | 1022.7 hPa | 0 mm | - | 96 W/m² | - |
| 1787428189 | 19.44° C | 69% | 1022.6 hPa | 0 mm | - | 90 W/m² | - |
| 1787427884 | 19.44° C | 69% | 1022.6 hPa | 0 mm | - | 84 W/m² | - |
| 1787427581 | 19.44° C | 70% | 1022.5 hPa | 0 mm | - | 89 W/m² | - |
| 1787427276 | 19.44° C | 70% | 1022.6 hPa | 0 mm | - | 84 W/m² | - |
| 1787426972 | 19.44° C | 70% | 1022.8 hPa | 0 mm | - | 90 W/m² | - |
| 1787426667 | 19.44° C | 70% | 1022.7 hPa | 0 mm | - | 87 W/m² | - |
| 1787426363 | 18.89° C | 71% | 1022.7 hPa | 0 mm | - | 101 W/m² | - |
| 1787426060 | 18.89° C | 71% | 1022.8 hPa | 0 mm | - | 100 W/m² | - |
| 1787425755 | 18.89° C | 71% | 1022.8 hPa | 0 mm | - | 107 W/m² | - |
| 1787425451 | 18.89° C | 71% | 1022.9 hPa | 0 mm | - | 112 W/m² | - |
| 1787425146 | 18.33° C | 72% | 1022.9 hPa | 0 mm | - | 99 W/m² | - |
| 1787424845 | 18.33° C | 73% | 1022.9 hPa | 0 mm | - | 96 W/m² | - |
| 1787424540 | 18.33° C | 72% | 1023.1 hPa | 0 mm | - | 92 W/m² | - |
| 1787424235 | 18.89° C | 72% | 1022.9 hPa | 0 mm | - | 109 W/m² | - |
| 1787423930 | 18.33° C | 73% | 1023 hPa | 0 mm | - | 97 W/m² | - |
| 1787423628 | 18.33° C | 73% | 1022.9 hPa | 0 mm | - | 78 W/m² | - |
| 1787423322 | 18.33° C | 74% | 1023 hPa | 0 mm | - | 70 W/m² | - |
| 1787423019 | 17.78° C | 74% | 1023.1 hPa | 0 mm | - | 59 W/m² | - |
| 1787422714 | 17.78° C | 74% | 1023.2 hPa | 0 mm | - | 61 W/m² | - |
* Rain latest hour (hover to see other rain measurements)
** Current wind speed in m/s (hover to see current wind gust speed)